Overview Statistics Trail Chart Weather Telemetry Raw packets
 

This is the latest recevied weather packets stored in our database for station/object NR6G-12. If no packets are shown the sender has not sent any weather packets the latest 10 day(s).

<< 88 89 90 91 92 93 94 >>
Time Temp. Humidity Pressure Rain* Wind** Luminosity Snow
1787861293 22.22° C 41% 1023.7 hPa 0 mm - - -
1787860933 22.78° C 41% 1023.6 hPa 0 mm - - -
1787860573 22.78° C 41% 1023.6 hPa 0 mm - - -
1787860213 22.78° C 44% 1023.6 hPa 0 mm - - -
1787859853 22.78° C 43% 1023.6 hPa 0 mm - - -
1787859493 22.78° C 40% 1023.5 hPa 0 mm - - -
1787859133 22.78° C 37% 1023.3 hPa 0 mm - - -
1787858773 22.78° C 39% 1023.1 hPa 0 mm - - -
1787858413 22.22° C 40% 1023 hPa 0 mm - - -
1787858053 21.67° C 45% 1022.8 hPa 0 mm - - -
1787857693 22.22° C 46% 1022.8 hPa 0 mm - - -
1787857333 22.22° C 46% 1022.7 hPa 0 mm - - -
1787856974 22.78° C 45% 1022.7 hPa 0 mm - - -
1787856613 23.33° C 44% 1022.7 hPa 0 mm - - -
1787856253 23.33° C 45% 1022.7 hPa 0 mm - - -
1787855893 23.33° C 43% 1022.4 hPa 0 mm - - -
1787855533 23.89° C 44% 1022.3 hPa 0 mm - - -
1787855174 23.33° C 44% 1022.3 hPa 0 mm - - -
1787854813 23.33° C 44% 1022.2 hPa 0 mm - - -
1787854453 23.33° C 43% 1022 hPa 0 mm - - -
1787854093 23.33° C 42% 1022 hPa 0 mm - - -
1787853735 23.89° C 42% 1022 hPa 0 mm - - -
1787853373 23.89° C 42% 1022 hPa 0 mm - - -
1787853013 24.44° C 41% 1021.9 hPa 0 mm - - -
1787852653 24.44° C 40% 1021.8 hPa 0 mm - - -

* Rain latest hour (hover to see other rain measurements)
** Current wind speed in m/s (hover to see current wind gust speed)